EW9774 Weather Reports


time (UTC)temp
C
wind
direction
speed
KPH
gust
KPH
rain 1hr
cm
rain 24hr
cm
rain mn
cm
humidity
%
barometer
mb
20210723163030 20 180 3.2 0.0 0.00 0.00 0.00 58 1024.1
20210723161527 20 180 3.2 0.0 0.00 0.00 0.00 61 1024.1
20210723160022 19 180 3.2 0.0 0.00 0.00 0.00 62 1024.1
20210723154534 19 180 3.2 0.0 0.00 0.00 0.00 63 1024.1
20210723153025 18 180 1.6 0.0 0.00 0.00 0.00 66 1024.1
20210723151527 17 180 1.6 0.0 0.00 0.00 0.00 68 1024.1
20210723150025 16 180 1.6 0.0 0.00 0.00 0.00 70 1024.1
20210723144530 16 180 0.0 0.0 0.00 0.00 0.00 73 1024.1
20210723143025 14 180 1.6 0.0 0.00 0.00 0.00 78 1024.1
20210723141525 13 180 3.2 0.0 0.00 0.00 0.00 82 1024.1
20210723140029 12 180 3.2 0.0 0.00 0.00 0.00 85 1023.8
20210723134607 11 180 3.2 0.0 0.00 0.00 0.00 88 1023.8
20210723133027 11 181 1.6 0.0 0.00 0.00 0.00 89 1023.8
20210723131531 10 201 3.2 0.0 0.00 0.00 0.00 88 1023.4
20210723130027 11 202 3.2 0.0 0.00 0.00 0.00 86 1023.4
20210723124537 11 191 3.2 0.0 0.00 0.00 0.00 85 1023.4
20210723123027 11 202 3.2 0.0 0.00 0.00 0.00 85 1023.1
20210723121531 11 192 4.8 0.0 0.00 0.00 0.00 85 1023.1
20210723120030 11 181 3.2 0.0 0.00 0.00 0.00 85 1022.7
20210723114528 11 200 3.2 0.0 0.00 0.00 0.00 85 1022.7
20210723113024 11 190 3.2 0.0 0.00 0.00 0.00 85 1022.7
20210723111527 11 187 1.6 0.0 0.00 0.00 0.00 85 1022.7
20210723110027 11 182 1.6 0.0 0.00 0.00 0.00 82 1022.4
20210723104528 12 180 3.2 0.0 0.00 0.00 0.00 80 1022.4
20210723103024 12 180 3.2 0.0 0.00 0.00 0.00 81 1022.4
20210723101527 11 180 1.6 0.0 0.00 0.00 0.00 80 1022.4
20210723100026 12 180 1.6 0.0 0.00 0.00 0.00 78 1022.4
20210723094526 12 180 1.6 0.0 0.00 0.00 0.00 76 1022.4
20210723093028 12 180 3.2 0.0 0.00 0.00 0.00 75 1022.0
20210723091529 13 180 0.0 0.0 0.00 0.00 0.00 71 1022.0
20210723090027 14 180 0.0 0.0 0.00 0.00 0.00 68 1022.0
20210723084530 15 180 1.6 0.0 0.00 0.00 0.00 63 1021.7
20210723083039 16 180 6.4 0.0 0.00 0.00 0.00 62 1021.7
20210723081528 15 180 9.7 0.0 0.00 0.00 0.00 63 1021.7
20210723080027 15 180 9.7 0.0 0.00 0.00 0.00 64 1021.7
20210723074530 15 180 8.0 0.0 0.00 0.00 0.00 64 1021.7
20210723073029 15 180 9.7 0.0 0.00 0.00 0.00 63 1021.3
20210723071607 15 180 8.0 0.0 0.00 0.00 0.00 62 1021.3
20210723070027 16 180 8.0 0.0 0.00 0.00 0.00 58 1021.3
20210723064525 16 180 6.4 0.0 0.00 0.00 0.00 56 1021.3
20210723063028 17 180 8.0 0.0 0.00 0.00 0.00 55 1021.3
20210723061528 17 180 8.0 0.0 0.00 0.00 0.00 55 1021.0
20210723060038 17 180 9.7 0.0 0.00 0.00 0.00 54 1021.0
20210723054536 17 180 9.7 0.0 0.00 0.00 0.00 53 1021.0
20210723053033 17 180 8.0 0.0 0.00 0.00 0.00 53 1020.6
20210723050038 18 180 8.0 0.0 0.00 0.00 0.00 51 1020.3
20210723044535 19 180 6.4 0.0 0.00 0.00 0.00 48 1020.3
20210723043028 20 180 6.4 0.0 0.00 0.00 0.00 47 1019.9
20210723041528 20 180 6.4 0.0 0.00 0.00 0.00 44 1019.9
20210723040028 21 180 9.7 0.0 0.00 0.00 0.00 43 1019.6
20210723034528 21 180 9.7 0.0 0.00 0.00 0.00 42 1019.6
20210723033026 21 180 11.3 0.0 0.00 0.00 0.00 42 1019.3
20210723031526 22 180 8.0 0.0 0.00 0.00 0.00 42 1018.9
20210723030031 22 180 9.7 0.0 0.00 0.00 0.00 40 1018.9
20210723024532 22 180 9.7 0.0 0.00 0.00 0.00 40 1018.9
20210723023024 22 180 9.7 0.0 0.00 0.00 0.00 39 1018.6
20210723021526 22 180 8.0 0.0 0.00 0.00 0.00 38 1018.6
20210723020027 23 180 8.0 0.0 0.00 0.00 0.00 38 1018.2
20210723014527 23 180 8.0 0.0 0.00 0.00 0.00 36 1018.2
20210723013029 23 180 11.3 0.0 0.00 0.00 0.00 35 1018.2
20210723011533 24 180 6.4 0.0 0.00 0.00 0.00 35 1018.2
20210723010028 24 180 9.7 0.0 0.00 0.00 0.00 33 1018.2
20210723004531 25 180 11.3 0.0 0.00 0.00 0.00 32 1018.2
20210723003035 25 180 9.7 0.0 0.00 0.00 0.00 34 1018.2
20210723001529 25 180 8.0 0.0 0.00 0.00 0.00 35 1018.2
20210723000027 25 180 4.8 0.0 0.00 0.00 0.00 37 1018.2
20210722234527 25 180 9.7 0.0 0.00 0.00 0.00 37 1018.2
20210722233032 25 180 8.0 0.0 0.00 0.00 0.00 38 1018.2
20210722231530 25 180 11.3 0.0 0.00 0.00 0.00 38 1018.2
20210722230029 25 180 8.0 0.0 0.00 0.00 0.00 38 1018.2
20210722224526 26 180 9.7 0.0 0.00 0.00 0.00 38 1018.6
20210722223026 26 180 8.0 0.0 0.00 0.00 0.00 38 1018.6
20210722221529 26 180 6.4 0.0 0.00 0.00 0.00 39 1018.9
20210722220024 26 180 4.8 0.0 0.00 0.00 0.00 39 1018.9
20210722214539 26 180 4.8 0.0 0.00 0.00 0.00 39 1018.9
20210722213030 26 180 3.2 0.0 0.00 0.00 0.00 39 1018.9
20210722211530 25 180 4.8 0.0 0.00 0.00 0.00 39 1019.3
20210722210029 25 180 4.8 0.0 0.00 0.00 0.00 39 1019.3
20210722204527 25 180 6.4 0.0 0.00 0.00 0.00 39 1019.6
20210722203037 25 180 3.2 0.0 0.00 0.00 0.00 38 1019.6
20210722201605 25 180 4.8 0.0 0.00 0.00 0.00 39 1019.9
20210722200030 24 180 3.2 0.0 0.00 0.00 0.00 40 1019.9
20210722194528 23 180 4.8 0.0 0.00 0.00 0.00 41 1020.3
20210722193028 23 180 8.0 0.0 0.00 0.00 0.00 42 1020.3
20210722191532 22 180 8.0 0.0 0.00 0.00 0.00 42 1020.3
20210722190032 22 180 6.4 0.0 0.00 0.00 0.00 43 1020.6
20210722184524 22 180 6.4 0.0 0.00 0.00 0.00 43 1020.6
20210722183027 21 180 8.0 0.0 0.00 0.00 0.00 44 1020.6
20210722181525 21 180 4.8 0.0 0.00 0.00 0.00 44 1020.6
20210722180024 21 180 4.8 0.0 0.00 0.00 0.00 48 1021.0
20210722174529 21 180 3.2 0.0 0.00 0.00 0.00 49 1021.0
20210722173031 20 180 1.6 0.0 0.00 0.00 0.00 53 1021.0
20210722171539 19 180 3.2 0.0 0.00 0.00 0.00 56 1021.3
20210722170026 18 180 3.2 0.0 0.00 0.00 0.00 58 1021.3
20210722164526 17 180 4.8 0.0 0.00 0.00 0.00 61 1021.7